[[{"header":{"parameterUnit":"m.s-1","parameterCategory":1,"la1":30.2991,"la2":30.254,"lo1":-89.0895,"lo2":-89.0444,"dy":0.0017,"dx":0.0017,"nx":28,"ny":28,"refTime":"2024-06-19T21:00:00:Z","depth":0,"parameterNumber":2,"parameterNumberName":"U-component_of_WINDS"},"data":[0,0,0,0,0,0,0,0,0,0,0,0,0,0,0,0,0,0,0,0,0,0,0,0,0,0,0,0,0,0,0,0,0,0,0,0,0,0,0,0,0,0,0,0,0,0,0,0,0,0,0,0,0,0,0,0,0,0,-4.4854,-4.4854,0,-4.4824,-4.4823,-4.4823,-4.4687,-4.4684,-4.4681,-4.4678,-4.4648,-4.465,-4.4652,0,0,0,0,0,0,0,0,0,0,0,0,0,-4.4797,-4.4798,-4.4854,-4.4854,-4.4853,-4.4824,-4.4823,-4.4823,-4.4688,-4.4684,-4.468,-4.4676,-4.4647,-4.465,-4.4653,0,0,0,0,0,0,0,0,0,0,0,0,0,-4.48,-4.4799,-4.4854,-4.4782,-4.4775,-4.4824,-4.4823,-4.4823,-4.4688,-4.4684,-4.4679,-4.4674,-4.4647,-4.465,-4.4653,-4.4769,0,0,-4.4663,-4.4664,0,0,0,0,0,0,0,0,-4.48,-4.4802,-4.4793,-4.4787,-4.478,-4.4754,-4.4792,-4.4805,-4.469,-4.4721,-4.4677,-4.4672,-4.4687,-4.4687,-4.4692,-4.4767,-4.4766,-4.4663,-4.4665,-4.4667,-4.4668,0,0,0,0,0,0,0,-4.48,-4.4802,-4.4842,-4.4793,-4.4785,-4.4752,-4.4747,-4.4794,-4.4732,-4.4718,-4.4708,-4.4707,-4.4683,-4.4689,-4.469,-4.4766,-4.4663,-4.4666,-4.4668,-4.4669,-4.4935,-4.494,0,0,0,0,0,0,-4.4809,-4.4803,-4.4843,-4.4841,-4.4778,-4.4757,-4.4751,-4.4767,-4.4731,-4.4721,-4.4711,-4.47,-4.4686,-4.4686,-4.4689,-4.4821,-4.4667,-4.467,-4.4672,-4.493,-4.4936,-4.4942,0,0,0,0,0,0,-4.4809,-4.4814,-4.4844,-4.4819,-4.4821,-4.4763,-4.4782,-4.4769,-4.4775,-4.4725,-4.4713,-4.4728,-4.4682,-4.4684,-4.475,-4.4818,-4.4671,-4.4674,-4.4924,-4.4932,-4.4939,-4.5088,0,0,0,0,0,0,-4.4808,-4.4815,-4.4857,-4.4821,-4.4823,-4.4906,-4.4786,-4.4772,-4.4781,-4.4767,-4.4738,-4.4729,-4.4678,-4.4746,-4.4753,-4.482,-4.4677,-4.4918,-4.4928,-4.4937,-4.5077,-4.51,-4.5119,0,0,0,0,0,-4.4806,-4.4901,-4.486,-4.4866,-4.4875,-4.491,-4.491,-4.485,-4.4787,-4.483,-4.4798,-4.473,-4.481,-4.4754,-4.4761,-4.483,-4.4913,-4.4925,-4.4936,-4.5067,-4.5095,-4.5119,0,0,0,0,0,0,-4.4946,-4.4895,-4.4849,-4.4935,-4.4928,-4.4887,-4.4938,-4.4882,-4.4892,-4.4879,-4.4804,-4.4799,-4.4876,-4.4859,-4.4797,-4.494,-4.485,-4.4864,-4.4947,-4.4974,-4.4995,-4.4996,-4.4679,0,0,0,0,0,-4.4987,-4.502,-4.4973,-4.5053,-4.5052,-4.4997,-4.501,-4.4964,-4.4953,-4.495,-4.4922,-4.4916,-4.4939,-4.4956,-4.4975,-4.5075,-4.5066,-4.5126,-4.5147,-4.5165,-4.5177,-4.5229,-4.5254,-4.498,-4.498,-4.4979,0,0,-4.5072,-4.5048,-4.5073,-4.5081,-4.507,-4.5105,-4.4995,-4.5037,-4.5062,-4.4956,-4.5016,-4.4997,-4.4984,-4.5067,-4.5103,-4.5056,-4.5252,-4.518,-4.5195,-4.5196,-4.5243,-4.5269,-4.5292,-4.4987,-4.4986,-4.4985,0,0,-4.5244,-4.523,-4.5294,-4.5286,-4.5271,-4.5234,-4.525,-4.5218,-4.52,-4.526,-4.5181,-4.5211,-4.5253,-4.5247,-4.525,-4.5423,-4.5361,-4.5432,-4.5542,-4.5594,-4.5615,-4.5634,-4.5694,-4.5717,-4.5444,-4.5444,-4.5445,0,-4.5351,-4.54,-4.5335,-4.5382,-4.5388,-4.5295,-4.536,-4.5355,-4.5348,-4.5355,-4.5303,-4.5354,-4.5339,-4.542,-4.5462,-4.5468,-4.5484,-4.5433,-4.5617,-4.5635,-4.5652,-4.5709,-4.5732,-4.5453,-4.5452,-4.5451,-4.545,0,-4.5532,-4.5568,-4.5623,-4.5617,-4.563,-4.5687,-4.563,-4.5651,-4.5606,-4.5575,-4.5637,-4.5616,-4.5629,-4.5645,-4.5601,-4.572,-4.5692,-4.5631,-4.5538,-4.5688,-4.574,-4.5761,-4.5465,-4.5462,-4.546,-4.5457,0,0,-4.5788,-4.5748,-4.5769,-4.5765,-4.5743,-4.577,-4.5823,-4.5835,-4.5855,-4.5854,-4.5896,-4.5935,-4.5878,-4.5882,-4.5836,-4.5882,-4.6019,-4.5814,-4.5813,-4.5852,-4.6148,-4.6193,-4.6219,-4.5979,-4.5983,-4.5986,-4.6149,0,-4.5951,-4.6038,-4.5982,-4.6078,-4.611,-4.6023,-4.6069,-4.6061,-4.6035,-4.6059,-4.6029,-4.6057,-4.5981,-4.5982,-4.6024,-4.5994,-4.6077,-4.5981,-4.6017,-4.6019,-4.602,-4.6247,-4.6294,-4.6448,-4.6169,-4.6172,-4.6175,0,-4.6151,-4.6159,-4.6258,-4.623,-4.6242,-4.6284,-4.6291,-4.6316,-4.6306,-4.6283,-4.6288,-4.6232,-4.6283,-4.6195,-4.6263,-4.6199,-4.6211,-4.6199,-4.6204,-4.6203,-4.6104,-4.625,-4.6496,-4.6519,-4.6206,-4.6204,-4.6202,0,-4.6326,-4.6362,-4.6425,-4.6426,-4.6395,-4.6427,-4.6416,-4.6401,-4.6412,-4.642,-4.6426,-4.644,-4.6447,-4.646,-4.6409,-4.635,-4.6485,-4.6392,-4.6467,-4.6469,-4.6497,-4.6495,-4.6747,-4.6509,-4.6509,-4.6508,-4.6508,0,-4.6512,-4.6576,-4.6503,-4.6543,-4.6612,-4.6548,-4.6619,-4.6599,-4.6587,-4.6621,-4.6548,-4.6581,-4.6513,-4.6541,-4.6502,-4.6565,-4.6569,-4.6552,-4.6541,-4.6557,-4.6559,-4.6562,-4.6549,-4.6514,-4.6513,-4.6512,-4.6511,0,-4.6718,-4.6672,-4.6736,-4.6702,-4.6695,-4.6748,-4.6719,-4.6754,-4.6724,-4.6768,-4.6775,-4.6727,-4.6755,-4.6707,-4.6729,-4.6703,-4.679,-4.6763,-4.6794,-4.6785,-4.6862,-4.6855,-4.7122,-4.7153,-4.6898,-4.69,-4.6902,0,-4.6838,-4.6885,-4.6857,-4.6875,-4.6868,-4.6897,-4.6908,-4.6849,-4.6864,-4.6857,-4.6893,-4.6916,-4.693,-4.698,-4.6947,-4.6964,-4.6936,-4.7029,-4.6938,-4.6953,-4.6935,-4.6932,-4.6936,-4.7046,-4.705,-4.7052,-4.7054,0,-4.7057,-4.7032,-4.7051,-4.7063,-4.7079,-4.7086,-4.7087,-4.7106,-4.7043,-4.7064,-4.7092,-4.7104,-4.7127,-4.715,-4.716,-4.7149,-4.7092,-4.7084,-4.7101,-4.7118,-4.7132,-4.7124,-4.6842,-4.7077,-4.7074,-4.7073,-4.7072,-4.7071,-4.7222,-4.7259,-4.7246,-4.727,-4.7265,-4.7269,-4.73,-4.7274,-4.7296,-4.731,-4.7274,-4.7311,-4.7301,-4.7308,-4.7303,-4.7332,-4.7291,-4.7317,-4.7323,-4.733,-4.7342,-4.713,-4.7334,-4.7333,-4.7332,-4.7332,-4.7331,0,-4.7434,-4.7422,-4.7445,-4.745,-4.7469,-4.7414,-4.7414,-4.7434,-4.7467,-4.7462,-4.7478,-4.7511,-4.7534,-4.7504,-4.7522,-4.755,-4.7524,-4.7557,-4.7553,-4.7551,-4.7378,-4.736,-4.7577,-4.7577,-4.7577,-4.7577,-4.7577,-4.7577,-4.7547,-4.7608,-4.7583,-4.7641,-4.7628,-4.7663,-4.7667,-4.7671,-4.7666,-4.7706,-4.7725,-4.7705,-4.7691,-4.7707,-4.7726,-4.7716,-4.7726,-4.7767,-4.7749,-4.7587,-4.7563,-4.754,-4.7522,-4.777,-4.777,-4.7919,-4.792,-4.7921]},{"header":{"parameterUnit":"m.s-1","parameterCategory":1,"la1":30.2991,"la2":30.254,"lo1":-89.0895,"lo2":-89.0444,"dy":0.0017,"dx":0.0017,"nx":28,"ny":28,"refTime":"2024-06-19T21:00:00:Z","depth":0,"parameterNumber":3,"parameterNumberName":"V-component_of_WINDS"},"data":[0,0,0,0,0,0,0,0,0,0,0,0,0,0,0,0,0,0,0,0,0,0,0,0,0,0,0,0,0,0,0,0,0,0,0,0,0,0,0,0,0,0,0,0,0,0,0,0,0,0,0,0,0,0,0,0,0,0,2.3027,2.3027,0,2.3042,2.3042,2.3042,2.307,2.3071,2.3071,2.3072,2.3082,2.3082,2.3082,0,0,0,0,0,0,0,0,0,0,0,0,0,2.3019,2.3019,2.3027,2.3027,2.3027,2.3042,2.3042,2.3042,2.307,2.3071,2.3071,2.3072,2.3082,2.3082,2.3082,0,0,0,0,0,0,0,0,0,0,0,0,0,2.3027,2.3019,2.3027,2.3043,2.3045,2.3042,2.3042,2.3042,2.307,2.3071,2.3071,2.3072,2.3083,2.3082,2.3082,2.3063,0,0,2.3081,2.3081,0,0,0,0,0,0,0,0,2.3027,2.3027,2.304,2.3042,2.3044,2.3055,2.3043,2.3049,2.307,2.306,2.3072,2.3073,2.3072,2.3073,2.3074,2.3064,2.3064,2.3081,2.3081,2.308,2.308,0,0,0,0,0,0,0,2.3026,2.3027,2.3033,2.3041,2.3043,2.3049,2.3051,2.3045,2.3061,2.3061,2.3063,2.3065,2.3073,2.3074,2.3074,2.3064,2.3081,2.3081,2.308,2.308,2.3041,2.3041,0,0,0,0,0,0,2.3024,2.3026,2.3032,2.3033,2.3037,2.3048,2.305,2.3051,2.3061,2.3064,2.3064,2.3066,2.3074,2.3075,2.3075,2.3054,2.308,2.308,2.308,2.3042,2.3041,2.304,0,0,0,0,0,0,2.3023,2.3024,2.3032,2.303,2.3032,2.3047,2.3047,2.305,2.3051,2.3064,2.3066,2.3062,2.3075,2.3075,2.3067,2.3055,2.308,2.308,2.3043,2.3042,2.3041,2.3013,0,0,0,0,0,0,2.3023,2.3024,2.3017,2.303,2.3032,2.3024,2.3047,2.305,2.3051,2.3054,2.3062,2.3065,2.3076,2.3067,2.3066,2.3055,2.3079,2.3044,2.3043,2.3041,2.3015,2.3011,2.3007,0,0,0,0,0,2.3023,2.3007,2.3017,2.3017,2.3024,2.3023,2.3024,2.3038,2.305,2.3043,2.3052,2.3064,2.3057,2.3066,2.3065,2.3054,2.3045,2.3043,2.3041,2.3016,2.3011,2.3007,0,0,0,0,0,0,2.2991,2.3009,2.302,2.3009,2.3015,2.3028,2.302,2.3033,2.3034,2.3036,2.3052,2.3054,2.3043,2.3048,2.3058,2.3037,2.3053,2.3051,2.3034,2.303,2.3026,2.3024,2.3079,0,0,0,0,0,2.2983,2.2982,2.2998,2.2986,2.2989,2.3004,2.3004,2.3015,2.3021,2.3023,2.303,2.3035,2.3034,2.3032,2.3031,2.3016,2.3018,2.3008,2.3004,2.3001,2.2999,2.2991,2.2987,2.3034,2.3034,2.3034,0,0,2.2965,2.2975,2.2973,2.298,2.2986,2.2983,2.3005,2.3002,2.3,2.3022,2.3014,2.3021,2.3026,2.3015,2.301,2.3018,2.2987,2.2999,2.2996,2.2995,2.2989,2.2985,2.2981,2.3033,2.3033,2.3033,0,0,2.2932,2.294,2.2932,2.2938,2.2947,2.2958,2.2956,2.2969,2.2974,2.2968,2.2984,2.2982,2.2979,2.2983,2.2985,2.2956,2.2968,2.2956,2.2935,2.2928,2.2924,2.2921,2.2911,2.2907,2.2953,2.2953,2.2953,0,2.2909,2.2907,2.2925,2.2921,2.2924,2.2946,2.2938,2.2942,2.295,2.2951,2.2961,2.2959,2.2964,2.2954,2.2948,2.2948,2.2946,2.2954,2.2924,2.2921,2.2918,2.2908,2.2904,2.2952,2.2952,2.2952,2.2952,0,2.2878,2.2877,2.2869,2.2878,2.288,2.2873,2.289,2.289,2.2901,2.291,2.2904,2.2912,2.2914,2.2913,2.2922,2.2904,2.2909,2.2921,2.2937,2.2911,2.2902,2.2899,2.2949,2.295,2.295,2.2951,0,0,2.2822,2.2845,2.2841,2.2846,2.286,2.2858,2.2853,2.2857,2.2856,2.2862,2.2857,2.2856,2.2868,2.287,2.2881,2.2875,2.2852,2.2888,2.2888,2.288,2.2832,2.2822,2.2817,2.286,2.286,2.2859,2.2831,0,2.2792,2.2785,2.2803,2.2791,2.279,2.2813,2.2809,2.2816,2.2825,2.2825,2.2835,2.2834,2.285,2.2851,2.2846,2.2856,2.2842,2.2858,2.2855,2.2855,2.2852,2.2813,2.2802,2.2775,2.2828,2.2827,2.2827,0,2.2754,2.276,2.2749,2.2765,2.2765,2.2761,2.2767,2.2767,2.2775,2.2783,2.2786,2.28,2.2796,2.2813,2.2806,2.2817,2.2817,2.2822,2.2821,2.282,2.2838,2.281,2.2767,2.2762,2.2822,2.2822,2.2822,0,2.2714,2.2719,2.2714,2.2718,2.2736,2.2733,2.274,2.275,2.2752,2.2756,2.2758,2.2761,2.2763,2.2765,2.2779,2.2791,2.2771,2.2789,2.2776,2.2776,2.277,2.277,2.2725,2.2772,2.2772,2.2772,2.2772,0,2.2677,2.2669,2.2697,2.2693,2.2685,2.2706,2.2697,2.2707,2.2716,2.2714,2.2734,2.2731,2.2751,2.2751,2.2762,2.2755,2.2756,2.2761,2.2763,2.2758,2.2757,2.2757,2.2759,2.2771,2.2771,2.2771,2.2771,0,2.263,2.2649,2.2644,2.2663,2.2667,2.2661,2.2676,2.2673,2.2685,2.2683,2.2683,2.2701,2.2702,2.2717,2.2721,2.2728,2.2716,2.2723,2.2714,2.2716,2.2701,2.2702,2.2654,2.2649,2.27,2.2699,2.2699,0,2.2605,2.26,2.2619,2.262,2.2627,2.2628,2.2631,2.2652,2.2653,2.2665,2.266,2.2663,2.2667,2.2667,2.2679,2.2682,2.2689,2.2672,2.2689,2.2684,2.2688,2.2687,2.2687,2.2667,2.2667,2.2666,2.2666,0,2.2558,2.2568,2.2571,2.2579,2.2582,2.2589,2.2596,2.2596,2.2618,2.2619,2.2622,2.2624,2.263,2.2632,2.2638,2.2644,2.2658,2.2661,2.2658,2.2651,2.2646,2.2648,2.2703,2.2661,2.2661,2.2662,2.2662,2.2662,2.252,2.2517,2.2531,2.2535,2.2544,2.2551,2.255,2.2562,2.2565,2.2572,2.2584,2.2584,2.2595,2.2604,2.261,2.261,2.2618,2.2614,2.2613,2.2611,2.2608,2.2648,2.2611,2.2611,2.2611,2.2612,2.2612,0,2.2473,2.2484,2.2488,2.2499,2.2503,2.2519,2.2528,2.2529,2.253,2.254,2.2544,2.2546,2.255,2.2564,2.2568,2.2565,2.2572,2.2566,2.2565,2.2567,2.2601,2.2603,2.256,2.256,2.256,2.256,2.256,2.256,2.2449,2.2446,2.2458,2.2458,2.2469,2.2471,2.2475,2.2482,2.249,2.2493,2.2496,2.2506,2.2517,2.2523,2.2527,2.2531,2.2531,2.2522,2.2528,2.2559,2.2564,2.2569,2.2571,2.2522,2.2522,2.2494,2.2494,2.2494]}]]